• In Germany
  • List of Countries
  • For 7 days
  • Water Temperature
  • Satellite Maps
  • Weather Map
  • Weather Widgets
  • user-avatar
    Login

    Hourly Weather Pointe-Noire

    Today, 16 January, Tuesday

    Time Temperature Precipitation Wind Pressure Humidity
    00:00 +24°C° 0 mm 1 mps 721 mmHg 68%
    01:00 +23°C° 0 mm 1 mps 721 mmHg 72%
    02:00 +23°C° 0 mm 1 mps 721 mmHg 75%
    03:00 +21°C° 0 mm 0 mps 721 mmHg 79%
    04:00 +21°C° 0 mm 0 mps 721 mmHg 82%
    05:00 +21°C° 0 mm 0 mps 721 mmHg 84%
    06:00 +21°C° 0 mm 0 mps 721 mmHg 87%
    07:00 +21°C° 0 mm 0 mps 722 mmHg 89%
    08:00 +24°C° 0 mm 0 mps 722 mmHg 74%
    09:00 +29°C° 0 mm 1 mps 722 mmHg 59%
    10:00 +31°C° 0 mm 1 mps 722 mmHg 45%
    11:00 +33°C° 0 mm 1 mps 721 mmHg 36%
    12:00 +35°C° 0 mm 1 mps 721 mmHg 28%
    13:00 +37°C° 0 mm 1 mps 720 mmHg 20%
    14:00 +37°C° 0 mm 1 mps 720 mmHg 19%
    15:00 +37°C° 0 mm 1 mps 719 mmHg 18%
    16:00 +37°C° 0 mm 1 mps 718 mmHg 17%
    17:00 +34°C° 0 mm 1 mps 718 mmHg 21%
    18:00 +31°C° 0 mm 1 mps 718 mmHg 25%
    19:00 +29°C° 0 mm 1 mps 718 mmHg 29%
    20:00 +28°C° 0 mm 1 mps 719 mmHg 38%
    21:00 +27°C° 0 mm 2 mps 720 mmHg 46%
    22:00 +26°C° 0 mm 2 mps 720 mmHg 54%
    23:00 +25°C° 0 mm 2 mps 720 mmHg 64%

    Tomorrow, 17 January, Wednesday

    Time Temperature Precipitation Wind Pressure Humidity
    00:00 +25°C° 0 mm 1 mps 720 mmHg 74%
    01:00 +24°C° 0 mm 1 mps 720 mmHg 84%
    02:00 +24°C° 0 mm 1 mps 720 mmHg 87%
    03:00 +23°C° 0 mm 1 mps 720 mmHg 91%
    04:00 +23°C° 0 mm 1 mps 720 mmHg 94%
    05:00 +23°C° 0 mm 1 mps 720 mmHg 94%
    06:00 +23°C° 0 mm 1 mps 720 mmHg 94%
    07:00 +21°C° 0 mm 0 mps 721 mmHg 94%
    08:00 +25°C° 0 mm 1 mps 721 mmHg 82%
    09:00 +27°C° 0 mm 1 mps 721 mmHg 70%
    10:00 +30°C° 0 mm 1 mps 722 mmHg 57%
    11:00 +32°C° 0 mm 1 mps 721 mmHg 47%
    12:00 +34°C° 0 mm 1 mps 721 mmHg 36%
    13:00 +37°C° 0 mm 1 mps 720 mmHg 26%
    14:00 +37°C° 0 mm 1 mps 719 mmHg 24%
    15:00 +37°C° 0 mm 1 mps 718 mmHg 22%
    16:00 +37°C° 0 mm 1 mps 717 mmHg 20%
    17:00 +34°C° 0 mm 1 mps 717 mmHg 25%
    18:00 +32°C° 0 mm 1 mps 718 mmHg 30%
    19:00 +29°C° 0 mm 1 mps 718 mmHg 34%
    20:00 +28°C° 0 mm 1 mps 719 mmHg 41%
    21:00 +27°C° 0 mm 2 mps 719 mmHg 48%
    22:00 +26°C° 0 mm 2 mps 720 mmHg 55%
    23:00 +25°C° 0 mm 2 mps 720 mmHg 65%

    Day after tomorrow, 18 January, Thursday

    Time Temperature Precipitation Wind Pressure Humidity
    00:00 +25°C° 0 mm 2 mps 720 mmHg 76%
    01:00 +24°C° 0 mm 1 mps 720 mmHg 86%
    02:00 +24°C° 0 mm 1 mps 720 mmHg 89%
    03:00 +24°C° 0 mm 1 mps 720 mmHg 91%
    04:00 +23°C° 0 mm 1 mps 720 mmHg 93%
    05:00 +24°C° 0 mm 1 mps 720 mmHg 92%
    06:00 +24°C° 0 mm 1 mps 721 mmHg 90%
    07:00 +24°C° 0 mm 1 mps 721 mmHg 88%
    08:00 +26°C° 0 mm 1 mps 721 mmHg 81%
    09:00 +27°C° 0 mm 1 mps 722 mmHg 75%
    10:00 +28°C° 0 mm 1 mps 722 mmHg 68%
    11:00 +31°C° 0 mm 1 mps 721 mmHg 57%
    12:00 +33°C° 0 mm 1 mps 721 mmHg 45%
    13:00 +36°C° 0 mm 1 mps 720 mmHg 34%
    14:00 +36°C° 0 mm 1 mps 719 mmHg 32%
    15:00 +36°C° 0 mm 1 mps 719 mmHg 30%
    16:00 +36°C° 0 mm 1 mps 718 mmHg 28%
    17:00 +33°C° 0 mm 1 mps 718 mmHg 33%
    18:00 +31°C° 0 mm 1 mps 719 mmHg 39%
    19:00 +29°C° 0 mm 1 mps 719 mmHg 44%
    20:00 +28°C° 0 mm 1 mps 720 mmHg 49%
    21:00 +27°C° 0 mm 2 mps 720 mmHg 54%
    22:00 +27°C° 0 mm 2 mps 721 mmHg 58%
    23:00 +26°C° 0 mm 2 mps 721 mmHg 67%

    19 January, Friday

    Time Temperature Precipitation Wind Pressure Humidity
    00:00 +25°C° 0 mm 2 mps 720 mmHg 76%
    01:00 +25°C° 0 mm 2 mps 720 mmHg 85%
    02:00 +24°C° 0 mm 2 mps 720 mmHg 86%
    03:00 +24°C° 0 mm 2 mps 720 mmHg 87%
    04:00 +24°C° 0 mm 2 mps 720 mmHg 89%
    05:00 +24°C° 0 mm 1 mps 720 mmHg 88%
    06:00 +25°C° 0 mm 1 mps 721 mmHg 88%
    07:00 +25°C° 0 mm 1 mps 721 mmHg 88%
    08:00 +26°C° 0 mm 1 mps 721 mmHg 80%
    09:00 +27°C° 0 mm 1 mps 722 mmHg 73%
    10:00 +29°C° 0 mm 1 mps 722 mmHg 65%
    11:00 +31°C° 0 mm 1 mps 721 mmHg 55%
    12:00 +34°C° 0 mm 1 mps 721 mmHg 44%
    13:00 +37°C° 0 mm 1 mps 720 mmHg 34%
    14:00 +36°C° 0 mm 1 mps 719 mmHg 33%
    15:00 +36°C° 0 mm 1 mps 718 mmHg 32%
    16:00 +36°C° 0 mm 1 mps 718 mmHg 31%
    17:00 +33°C° 0 mm 1 mps 718 mmHg 37%
    18:00 +31°C° 0 mm 1 mps 718 mmHg 42%
    19:00 +29°C° 0 mm 1 mps 719 mmHg 48%
    20:00 +28°C° 0 mm 1 mps 719 mmHg 56%
    21:00 +27°C° 0 mm 2 mps 720 mmHg 64%
    22:00 +26°C° 0 mm 2 mps 721 mmHg 72%
    23:00 +26°C° 0 mm 2 mps 721 mmHg 77%

    20 January, Saturday

    Time Temperature Precipitation Wind Pressure Humidity
    00:00 +25°C° 0 mm 2 mps 720 mmHg 82%
    01:00 +24°C° 0 mm 2 mps 720 mmHg 87%
    02:00 +24°C° 0 mm 2 mps 720 mmHg 88%
    03:00 +24°C° 0 mm 2 mps 720 mmHg 90%
    04:00 +24°C° 0 mm 1 mps 720 mmHg 91%
    05:00 +24°C° 0 mm 1 mps 720 mmHg 90%
    06:00 +24°C° 0 mm 1 mps 721 mmHg 89%
    07:00 +24°C° 0 mm 1 mps 721 mmHg 88%
    08:00 +26°C° 0 mm 1 mps 721 mmHg 78%
    09:00 +28°C° 0 mm 1 mps 722 mmHg 69%
    10:00 +30°C° 0 mm 1 mps 722 mmHg 59%
    11:00 +32°C° 0 mm 1 mps 721 mmHg 49%
    12:00 +35°C° 0 mm 1 mps 720 mmHg 40%
    13:00 +36°C° 0 mm 0 mps 720 mmHg 30%
    14:00 +35°C° 0 mm 0 mps 719 mmHg 29%
    15:00 +37°C° 0 mm 1 mps 718 mmHg 27%
    16:00 +37°C° 0 mm 1 mps 718 mmHg 26%
    17:00 +34°C° 0 mm 1 mps 718 mmHg 32%
    18:00 +32°C° 0 mm 1 mps 718 mmHg 37%
    19:00 +29°C° 0 mm 1 mps 718 mmHg 43%
    20:00 +28°C° 0 mm 1 mps 719 mmHg 50%
    21:00 +28°C° 0 mm 2 mps 720 mmHg 57%
    22:00 +27°C° 0 mm 2 mps 720 mmHg 64%
    23:00 +26°C° 0 mm 2 mps 720 mmHg 72%

    21 January, Sunday

    Time Temperature Precipitation Wind Pressure Humidity
    00:00 +25°C° 0 mm 2 mps 720 mmHg 79%
    01:00 +25°C° 0 mm 2 mps 720 mmHg 87%
    02:00 +24°C° 0 mm 2 mps 720 mmHg 87%
    03:00 +24°C° 0 mm 2 mps 720 mmHg 87%
    04:00 +24°C° 0 mm 2 mps 720 mmHg 87%
    05:00 +24°C° 0.1 mm 1 mps 720 mmHg 88%
    06:00 +24°C° 0.1 mm 1 mps 721 mmHg 88%
    07:00 +22°C° 0.1 mm 0 mps 721 mmHg 88%
    08:00 +25°C° 0 mm 0 mps 721 mmHg 76%
    09:00 +29°C° 0 mm 1 mps 722 mmHg 64%
    10:00 +31°C° 0 mm 1 mps 722 mmHg 52%
    11:00 +34°C° 0 mm 1 mps 721 mmHg 43%
    12:00 +36°C° 0 mm 1 mps 720 mmHg 33%
    13:00 +39°C° 0 mm 1 mps 719 mmHg 24%
    14:00 +39°C° 0 mm 1 mps 719 mmHg 22%
    15:00 +37°C° 0 mm 1 mps 718 mmHg 21%
    16:00 +37°C° 0 mm 1 mps 717 mmHg 20%
    17:00 +35°C° 0 mm 1 mps 718 mmHg 24%
    18:00 +30°C° 0 mm 0 mps 718 mmHg 28%
    19:00 +27°C° 0 mm 0 mps 718 mmHg 32%
    20:00 +28°C° 0 mm 1 mps 718 mmHg 39%
    21:00 +27°C° 0 mm 1 mps 719 mmHg 46%
    22:00 +26°C° 0 mm 1 mps 720 mmHg 53%
    23:00 +26°C° 0 mm 2 mps 719 mmHg 64%
    Show more